Location: Fort Worth, Tx
(32.7431°N, 97.3695°W)
Time: 15:52:44
(UTC-04:00)

Altair - Pass Details

Date: 03 October 2023
Orbit: 1501 x 1682 km, 47.2° (Epoch: 06 October)

Event Time Altitude Azimuth Distance (km) Brightness Sun altitude
Rises 05:34:03 0° 272° (W) 4,773 - -36.1°
Reaches altitude 10° 05:37:27 10° 281° (W) 3,816 - -35.4°
Exits shadow 05:44:23 35° 323° (NW) 2,404 8.3 -34.1°
Maximum altitude 05:46:23 38° 347° (NNW) 2,314 8.3 -33.7°
Drops below altitude 10° 05:55:37 10° 53° (NE) 3,930 10.4 -31.8°
Sets 05:59:11 0° 62° (ENE) 4,930 11.3 -31.1°
